Regional Weather Roundup
Issued by NWS Newport/Morehead, NC

Current Version | Previous Version | Text Only | Print | Product List | Glossary On
Versions: 1 2 3 4 5 6 7 8 9 10 11 12 13 14 15 16 17 18 19 20 21 22 23 24 25 26 27 28 29 30 31 32 33 34 35 36 37 38 39 40 41 42 43 44 45 46 47 48 49 50
217
ASUS42 KMHX 020213
RWRMHX
WEATHER ROUNDUP FOR EASTERN NORTH CAROLINA
NATIONAL WEATHER SERVICE NEWPORT/MOREHEAD CITY NC
1000 PM EDT SUN MAY 01 2016

NOTE: "FAIR" INDICATES FEW OR NO CLOUDS BELOW 12,000 FEET
WITH NO SIGNIFICANT WEATHER AND/OR OBSTRUCTIONS TO VISIBILITY

NCZ015>017-031-032-045>047-102-103-020300-
NORTH COAST

CITY           SKY/WX    TMP DP  RH WIND       PRES   REMARKS
EDENTON        CLOUDY    69  69  99 SW3       30.05R
ELIZABETH CITY CLOUDY    66  64  93 S5        30.04R
KITTY HAWK     CLOUDY    68  64  86 S5        30.04R
MANTEO         NOT AVBL

$$

NCZ045>047-081-094-103-104-020300-
CENTRAL COAST

CITY           SKY/WX    TMP DP  RH WIND       PRES   REMARKS
FRISCO         PTCLDY    69  65  86 SW9       30.06R
SWANQUARTER    NOT AVBL

$$

NCZ095-097-098-100-101-020300-
SOUTHERN COAST

CITY           SKY/WX    TMP DP  RH WIND       PRES   REMARKS
BEAUFORT       PTCLDY    70  67  90 S12       30.05S
CEDAR ISLAND   NOT AVBL
JACKSONVILLE   CLOUDY    70  66  87 S3        30.03R
PINEY ISLAND   NOT AVBL
WILMINGTON     MOCLDY    71  68  90 S9        30.03S


$$

NCZ011>013-027>030-043-044-078>080-089-090>093-098-020300-
COASTAL PLAIN

CITY           SKY/WX    TMP DP  RH WIND       PRES   REMARKS
AHOSKIE        CLOUDY    63  62  97 S5        30.03S
CLINTON        CLOUDY    69  68  99 CALM      30.03S
ELIZABETHTOWN  CLOUDY    69  68  98 S3        30.03S
GOLDSBORO      MOCLDY    70  70 100 S2        30.01R
GREENVILLE     MOCLDY    68  68 100 S6        30.05R
HAVELOCK       MOCLDY    71  66  84 S9        30.06R
KENANSVILLE    CLOUDY    68  67  95 CALM      30.04R
KINSTON        CLOUDY    68  66  94 S3        30.04R
NEW BERN       CLOUDY    68  65  90 S6        30.05R
RICHLANDS      CLOUDY    67  66  97 S5        30.04R
ROCKY MOUNT    CLOUDY    67  65  93 CALM      30.02R
WASHINGTON     CLOUDY    68  65  90 S3        30.04R
WHITEVILLE     CLOUDY    69  67  92 CALM      30.04R

$$

AMZ130-135-150-152-154-156-158-170-250-252-270-ANZ085-086-088-633-658-670-020300-
MARINE OBSERVATIONS

STATION/POSITION TIME  TEMP    WIND        PRES    WAVE   SWELL
                       AIR SEA DIR/SP/G            HT/PER HT/PER
                 (UTC) (F)     (DEG/KT/KT) (MB)    (FT/S) (FT/S)
CHESAPEAKE LIGHT 0100   61     190/ 13/ 14 1017.2
64 E VA BEACH    0150   58 53  200/  8/ 10 1017.6    4/ 9   3/ 9
DUCK             0100   69 67              1016.2
2 E DUCK         0111      59                N/A     3/10
OREGON INLET     0100   69 66              1016.6
13E OREGON INLT  0200      59                N/A     4/10   3/10
HATTERAS CG      0100   70 67              1017.0
DIAMOND BUOY     0150   74 74  190/ 19/ 23 1017.4    5/ 9   3/ 9
CAPE LOOKOUT     0100   70     200/ 10/ 12 1017.5
BEAUFORT LAB     0100   70 67              1016.6
30 SE NEW RVR IN 0125      69                N/A     4/ 9   2/11
27 SE WRIGHTSVLE 0108   73 71  200/ 10/ 14 1017.5
5 SE WRIGHTSVLE  0108   71 68  200/ 12/ 16 1017.7
225 S CAPE HAT   0150   72 74  140/ 12/ 14 1020.8    4/10   3/10
41 SE CHARLESTON 0150   75 73  160/  8/  8 1018.2    3/11   3/11

$$




USA.gov is the U.S. government's official web portal to all federal, state and local government web resources and services.